Home   Weather   New Paris   Past weeks
Flag for USA

Past Weather in New Paris, Pennsylvania, USA — Yesterday and Last 2 Weeks

Now
36 °F

Clear.


Feels Like: 36 °F
Forecast: 66 / 39 °F
Wind: No wind

Location: Bedford County Airport

Current Time: Oct 15, 2019 at 2:40:05 am

Latest Report: Oct 15, 2019 at 1:55 am


Visibility: 10 mi

Pressure: 30.13 "Hg

Humidity: 97%

Dew Point: 36 °F

Location of New ParisLocation

Past Weather in New Paris — Graph

°F

New Paris Temperature Yesterday

Maximum temperature yesterday: 66 °F (at 3:15 pm)
Minimum temperature yesterday: 31 °F (at 7:15 am)
Average temperature yesterday: 47 °F

High & Low Weather Summary for the Past Weeks

 TemperatureHumidityPressure
High69 °F (Oct 10, 3:55 pm)100% (Oct 13, 3:15 am)30.41 "Hg (Oct 13, 3:15 am)
Low29 °F (Oct 13, 7:15 am)28% (Oct 11, 4:55 pm)29.98 "Hg (Oct 13, 4:55 pm)
Average51 °F79%30.17 "Hg
* Reported Oct 4 8:55 pm — Oct 15 1:15 am, New Paris. Weather by CustomWeather, © 2019

Note: Actual official high and low records may vary slightly from our data, if they occured in-between our weather recording intervals... More about our weather records

Advertising

New Paris Weather History for the Previous 24 Hours

Scroll right to see more
 ConditionsComfort  
Time TempWeatherWind HumidityBarometerVisibility
1:15 am
Tue, Oct 15
37 °FClear.No wind97%30.12 "Hg10 mi
12:55 am37 °FClear.No wind97%30.12 "Hg10 mi
12:15 am37 °FClear.No wind95%30.12 "Hg10 mi
11:55 pm
Mon, Oct 14
39 °FClear.No wind92%30.11 "Hg10 mi
11:15 pm41 °FClear.No wind91%30.10 "Hg10 mi
10:55 pm41 °FClear.No wind92%30.10 "Hg10 mi
10:15 pm42 °FClear.No wind83%30.10 "Hg10 mi
9:55 pm43 °FClear.No wind81%30.09 "Hg10 mi
9:35 pm46 °FClear.No wind73%30.09 "Hg10 mi
9:15 pm45 °FClear.No wind76%30.08 "Hg10 mi
8:55 pm45 °FClear.No wind77%30.08 "Hg10 mi
8:15 pm46 °FClear.No wind73%30.07 "Hg10 mi
7:55 pm48 °FClear.3 mph70%30.06 "Hg10 mi
7:15 pm53 °FClear.3 mph53%30.04 "Hg10 mi
6:55 pm57 °FClear.6 mph45%30.03 "Hg10 mi
6:15 pm60 °FSunny.9 mph39%30.02 "Hg10 mi
5:55 pm62 °FSunny.9 mph38%30.01 "Hg10 mi
5:15 pm64 °FSunny.12 mph34%29.99 "Hg10 mi
4:55 pm65 °FSunny.13 mph35%29.99 "Hg10 mi
4:15 pm65 °FSunny.15 mph36%29.98 "Hg10 mi
3:55 pm66 °FSunny.14 mph34%29.98 "Hg10 mi
3:35 pm65 °FSunny.13 mph34%29.98 "Hg10 mi
3:15 pm66 °FSunny.12 mph34%29.98 "Hg10 mi
2:35 pm65 °FSunny.17 mph33%29.98 "Hg10 mi
2:15 pm65 °FScattered clouds.16 mph34%29.98 "Hg10 mi
1:55 pm66 °FScattered clouds.15 mph35%29.99 "Hg10 mi
1:15 pm65 °FScattered clouds.12 mph35%30.01 "Hg10 mi
12:55 pm65 °FScattered clouds.21 mph36%30.02 "Hg10 mi
12:15 pm63 °FSunny.9 mph38%30.02 "Hg10 mi
11:55 am63 °FSunny.15 mph37%30.02 "Hg10 mi
11:35 am63 °FSunny.14 mph39%30.02 "Hg10 mi
11:15 am62 °FSunny.13 mph40%30.02 "Hg10 mi
10:55 am61 °FSunny.8 mph44%30.03 "Hg10 mi
10:15 am56 °FSunny.5 mph60%30.04 "Hg10 mi
9:55 am50 °FSunny.No wind76%30.03 "Hg10 mi
9:35 am45 °FSunny.No wind88%30.04 "Hg10 mi
9:15 am41 °FSunny.No wind94%30.03 "Hg10 mi
8:55 am37 °FSunny.No wind98%30.03 "Hg10 mi
8:15 am33 °FSunny.No wind97%30.02 "Hg7 mi
7:55 am32 °FIce fog.No wind99%30.02 "Hg1 mi
7:15 am31 °FIce fog.No wind98%30.01 "Hg1 mi
6:55 am32 °FFog.No wind97%30.00 "Hg1 mi
6:35 am32 °FIce fog.No wind98%30.00 "Hg4 mi
6:15 am32 °FIce fog.No wind98%30.00 "Hg3 mi
5:55 am32 °FIce fog.No wind98%29.99 "Hg2 mi
5:15 am33 °FFog.No wind97%29.99 "Hg0 mi
4:55 am33 °FFog.No wind97%29.98 "Hg0 mi
3:55 am33 °FFog.No wind97%29.99 "Hg0 mi
3:35 am33 °FFog.No wind97%29.98 "Hg1 mi
3:15 am33 °FLow clouds.No wind98%29.99 "Hg7 mi
2:55 am33 °FPassing clouds.No wind98%29.99 "Hg10 mi
2:15 am34 °FPassing clouds.No wind98%30.00 "Hg10 mi
Weather by CustomWeather, © 2019

See weather overview